Time,TemperatureF,DewpointF,PressureIn,WindDirection,WindDirectionDegrees,WindSpeedMPH,WindSpeedGustMPH,Humidity,HourlyPrecipIn,Conditions,Clouds,dailyrainin,SoftwareType,DateUTC
2013-11-12 00:03:00,41.0,38.9,30.06,South,180,0.0,0.0,92,0.00,,,0.00,pywws,2013-11-12 05:03:00,
2013-11-12 00:08:00,40.6,38.5,30.06,South,180,0.0,0.0,92,0.00,,,0.00,pywws,2013-11-12 05:08:00,
2013-11-12 00:13:00,41.0,38.9,30.06,South,180,0.0,0.0,92,0.00,,,0.00,pywws,2013-11-12 05:13:00,
2013-11-12 00:18:00,40.8,38.7,30.06,South,180,0.0,0.0,92,0.00,,,0.00,pywws,2013-11-12 05:18:00,
2013-11-12 00:23:00,40.8,38.7,30.06,South,180,0.0,0.0,92,0.00,,,0.00,pywws,2013-11-12 05:23:00,
2013-11-12 00:33:00,40.6,38.5,30.07,South,180,0.0,0.0,92,0.00,,,0.00,pywws,2013-11-12 05:33:00,
2013-11-12 00:38:00,40.3,38.1,30.08,South,180,0.0,0.0,92,0.00,,,0.00,pywws,2013-11-12 05:38:00,
2013-11-12 00:43:00,40.5,38.3,30.08,South,180,0.0,0.0,92,0.00,,,0.00,pywws,2013-11-12 05:43:00,
2013-11-12 00:48:00,40.1,38.2,30.08,South,180,0.0,0.0,93,0.00,,,0.00,pywws,2013-11-12 05:48:00,
2013-11-12 00:53:00,40.3,38.4,30.08,South,180,0.0,0.0,93,0.00,,,0.00,pywws,2013-11-12 05:53:00,
2013-11-12 01:03:00,40.3,38.4,30.09,West,270,0.0,0.0,93,0.00,,,0.00,pywws,2013-11-12 06:03:00,
2013-11-12 01:08:00,40.3,38.4,30.09,West,270,0.0,0.0,93,0.00,,,0.00,pywws,2013-11-12 06:08:00,
2013-11-12 01:13:00,40.1,38.2,30.09,West,270,0.0,0.0,93,0.00,,,0.00,pywws,2013-11-12 06:13:00,
2013-11-12 01:18:00,40.1,38.2,30.09,West,270,0.0,0.0,93,0.00,,,0.00,pywws,2013-11-12 06:18:00,
2013-11-12 01:23:00,39.9,38.1,30.09,West,270,0.0,0.0,93,0.00,,,0.00,pywws,2013-11-12 06:23:00,
2013-11-12 01:33:00,39.6,37.7,30.10,West,270,0.0,0.0,93,0.00,,,0.00,pywws,2013-11-12 06:33:00,
2013-11-12 01:38:00,39.7,38.2,30.10,West,270,0.0,0.0,94,0.00,,,0.00,pywws,2013-11-12 06:38:00,
2013-11-12 01:43:00,39.7,38.2,30.10,South,180,0.0,0.0,94,0.00,,,0.00,pywws,2013-11-12 06:43:00,
2013-11-12 01:48:00,39.4,37.8,30.11,South,180,0.0,0.0,94,0.00,,,0.00,pywws,2013-11-12 06:48:00,
2013-11-12 01:53:00,39.4,37.8,30.11,South,180,0.0,0.0,94,0.00,,,0.00,pywws,2013-11-12 06:53:00,
2013-11-12 02:03:00,39.2,37.6,30.11,South,180,0.0,0.0,94,0.00,,,0.00,pywws,2013-11-12 07:03:00,
2013-11-12 02:08:00,39.2,37.6,30.11,West,270,0.0,0.0,94,0.00,,,0.00,pywws,2013-11-12 07:08:00,
2013-11-12 02:13:00,39.2,37.6,30.12,SE,135,0.0,0.0,94,0.00,,,0.00,pywws,2013-11-12 07:13:00,
2013-11-12 02:18:00,39.0,37.4,30.12,SE,135,0.0,0.0,94,0.00,,,0.00,pywws,2013-11-12 07:18:00,
2013-11-12 02:23:00,39.2,37.9,30.12,SE,135,0.0,0.0,95,0.00,,,0.00,pywws,2013-11-12 07:23:00,
2013-11-12 02:33:00,39.2,37.9,30.12,SE,135,0.0,0.0,95,0.00,,,0.00,pywws,2013-11-12 07:33:00,
2013-11-12 02:38:00,39.2,37.9,30.12,SE,135,0.0,0.0,95,0.00,,,0.00,pywws,2013-11-12 07:38:00,
2013-11-12 02:43:00,39.0,37.7,30.13,SE,135,0.0,0.0,95,0.00,,,0.00,pywws,2013-11-12 07:43:00,
2013-11-12 02:48:00,39.0,37.7,30.13,NW,315,0.0,0.0,95,0.00,,,0.00,pywws,2013-11-12 07:48:00,
2013-11-12 02:53:00,39.0,37.7,30.13,SW,225,0.0,0.0,95,0.00,,,0.00,pywws,2013-11-12 07:53:00,
2013-11-12 03:03:00,39.0,37.7,30.13,South,180,0.0,0.0,95,0.00,,,0.00,pywws,2013-11-12 08:03:00,
2013-11-12 03:08:00,38.8,37.5,30.14,South,180,0.0,0.0,95,0.00,,,0.00,pywws,2013-11-12 08:08:00,
2013-11-12 03:13:00,38.7,37.4,30.14,South,180,0.0,0.0,95,0.00,,,0.00,pywws,2013-11-12 08:13:00,
2013-11-12 03:18:00,38.8,37.5,30.14,South,180,0.0,0.0,95,0.00,,,0.00,pywws,2013-11-12 08:18:00,
2013-11-12 03:23:00,38.8,37.5,30.14,South,180,0.0,0.0,95,0.00,,,0.00,pywws,2013-11-12 08:23:00,
2013-11-12 03:33:00,38.8,37.5,30.14,South,180,0.0,0.0,95,0.00,,,0.00,pywws,2013-11-12 08:33:00,
2013-11-12 03:38:00,38.7,37.6,30.14,South,180,0.0,0.0,96,0.00,,,0.00,pywws,2013-11-12 08:38:00,
2013-11-12 03:43:00,38.7,37.6,30.14,South,180,0.0,0.0,96,0.00,,,0.00,pywws,2013-11-12 08:43:00,
2013-11-12 03:48:00,38.7,37.6,30.14,South,180,0.0,0.0,96,0.00,,,0.00,pywws,2013-11-12 08:48:00,
2013-11-12 03:53:00,38.7,37.6,30.15,South,180,0.0,0.0,96,0.00,,,0.00,pywws,2013-11-12 08:53:00,
2013-11-12 04:03:00,38.5,37.4,30.15,South,180,0.0,0.0,96,0.00,,,0.00,pywws,2013-11-12 09:03:00,
2013-11-12 04:08:00,38.5,37.4,30.15,South,180,0.0,0.0,96,0.00,,,0.00,pywws,2013-11-12 09:08:00,
2013-11-12 04:13:00,38.5,37.4,30.15,NW,315,0.0,0.0,96,0.00,,,0.00,pywws,2013-11-12 09:13:00,
2013-11-12 04:18:00,38.3,37.3,30.15,NW,315,0.0,0.0,96,0.00,,,0.00,pywws,2013-11-12 09:18:00,
2013-11-12 04:23:00,38.3,37.3,30.15,NW,315,0.0,0.0,96,0.00,,,0.00,pywws,2013-11-12 09:23:00,
2013-11-12 04:33:00,38.1,37.1,30.15,South,180,0.0,0.0,96,0.00,,,0.00,pywws,2013-11-12 09:33:00,
2013-11-12 04:38:00,38.1,37.1,30.16,South,180,0.0,0.0,96,0.00,,,0.00,pywws,2013-11-12 09:38:00,
2013-11-12 04:43:00,38.1,37.1,30.16,South,180,0.0,0.0,96,0.00,,,0.00,pywws,2013-11-12 09:43:00,
2013-11-12 04:48:00,38.1,37.1,30.16,South,180,0.0,0.0,96,0.00,,,0.00,pywws,2013-11-12 09:48:00,
2013-11-12 04:53:00,38.1,37.1,30.16,South,180,0.0,0.0,96,0.00,,,0.00,pywws,2013-11-12 09:53:00,
2013-11-12 05:03:00,37.9,37.2,30.16,South,180,0.0,0.0,97,0.00,,,0.00,pywws,2013-11-12 10:03:00,
2013-11-12 05:08:00,38.3,37.5,30.17,West,270,0.0,0.0,97,0.00,,,0.00,pywws,2013-11-12 10:08:00,
2013-11-12 05:13:00,38.3,37.5,30.17,SE,135,0.0,0.0,97,0.00,,,0.00,pywws,2013-11-12 10:13:00,
2013-11-12 05:18:00,37.9,37.2,30.17,SE,135,0.0,0.0,97,0.00,,,0.00,pywws,2013-11-12 10:18:00,
2013-11-12 05:23:00,38.3,37.5,30.17,West,270,0.0,0.0,97,0.00,,,0.00,pywws,2013-11-12 10:23:00,
2013-11-12 05:33:00,37.9,37.2,30.17,West,270,0.0,0.0,97,0.00,,,0.00,pywws,2013-11-12 10:33:00,
2013-11-12 05:38:00,38.3,37.5,30.18,South,180,0.0,0.0,97,0.00,,,0.00,pywws,2013-11-12 10:38:00,
2013-11-12 05:43:00,38.3,37.5,30.18,South,180,0.0,0.0,97,0.00,,,0.00,pywws,2013-11-12 10:43:00,
2013-11-12 05:48:00,38.5,37.7,30.18,South,180,0.0,0.0,97,0.00,,,0.00,pywws,2013-11-12 10:48:00,
2013-11-12 05:53:00,38.5,37.7,30.18,South,180,0.0,0.0,97,0.00,,,0.00,pywws,2013-11-12 10:53:00,
2013-11-12 06:03:00,38.5,37.7,30.17,South,180,0.0,0.0,97,0.00,,,0.00,pywws,2013-11-12 11:03:00,
2013-11-12 06:08:00,38.5,37.7,30.15,South,180,0.0,0.0,97,0.00,,,0.00,pywws,2013-11-12 11:08:00,
2013-11-12 06:13:00,38.8,38.3,30.14,South,180,0.0,0.0,98,0.00,,,0.00,pywws,2013-11-12 11:13:00,
2013-11-12 06:18:00,38.8,38.3,30.14,South,180,0.0,0.0,98,0.00,,,0.00,pywws,2013-11-12 11:18:00,
2013-11-12 06:23:00,38.8,38.3,30.14,South,180,0.0,0.0,98,0.00,,,0.00,pywws,2013-11-12 11:23:00,
2013-11-12 06:33:00,39.0,38.5,30.14,South,180,0.0,0.0,98,0.00,,,0.00,pywws,2013-11-12 11:33:00,
2013-11-12 06:38:00,39.2,38.7,30.14,South,180,0.0,0.0,98,0.00,,,0.00,pywws,2013-11-12 11:38:00,
2013-11-12 06:43:00,39.2,38.7,30.14,South,180,0.0,0.0,98,0.00,,,0.00,pywws,2013-11-12 11:43:00,
2013-11-12 06:48:00,39.4,38.9,30.14,South,180,0.0,0.0,98,0.00,,,0.00,pywws,2013-11-12 11:48:00,
2013-11-12 06:53:00,39.4,38.9,30.14,South,180,0.0,0.0,98,0.00,,,0.00,pywws,2013-11-12 11:53:00,
2013-11-12 07:03:00,39.6,39.0,30.15,South,180,0.0,0.0,98,0.00,,,0.00,pywws,2013-11-12 12:03:00,
2013-11-12 07:08:00,39.6,39.0,30.15,West,270,0.0,0.0,98,0.00,,,0.00,pywws,2013-11-12 12:08:00,
2013-11-12 07:13:00,39.9,39.4,30.15,West,270,0.0,0.0,98,0.00,,,0.00,pywws,2013-11-12 12:13:00,
2013-11-12 07:18:00,39.9,39.4,30.16,NE,45,0.0,0.0,98,0.00,,,0.00,pywws,2013-11-12 12:18:00,
2013-11-12 07:23:00,40.3,39.8,30.16,NE,45,0.0,0.0,98,0.00,,,0.00,pywws,2013-11-12 12:23:00,
2013-11-12 07:33:00,40.6,40.1,30.16,NE,45,0.0,0.0,98,0.00,,,0.00,pywws,2013-11-12 12:33:00,
2013-11-12 07:38:00,41.2,40.7,30.16,West,270,0.0,0.0,98,0.00,,,0.00,pywws,2013-11-12 12:38:00,
2013-11-12 07:43:00,41.4,40.8,30.16,NW,315,0.0,0.0,98,0.00,,,0.00,pywws,2013-11-12 12:43:00,
2013-11-12 07:48:00,41.9,41.4,30.15,NW,315,0.0,0.0,98,0.00,,,0.00,pywws,2013-11-12 12:48:00,
2013-11-12 07:53:00,42.1,41.6,30.15,NW,315,0.0,0.0,98,0.00,,,0.00,pywws,2013-11-12 12:53:00,
2013-11-12 08:03:00,42.4,41.9,30.15,NE,45,0.0,0.0,98,0.00,,,0.00,pywws,2013-11-12 13:03:00,
2013-11-12 08:08:00,43.3,42.5,30.15,NE,45,0.0,0.0,97,0.00,,,0.00,pywws,2013-11-12 13:08:00,
2013-11-12 08:13:00,44.1,43.0,30.15,North,0,0.0,0.0,96,0.00,,,0.00,pywws,2013-11-12 13:13:00,
2013-11-12 08:18:00,44.6,43.5,30.15,North,0,0.0,0.0,96,0.00,,,0.00,pywws,2013-11-12 13:18:00,
2013-11-12 08:23:00,45.3,43.7,30.15,North,0,0.0,0.0,94,0.00,,,0.00,pywws,2013-11-12 13:23:00,
2013-11-12 08:33:00,46.0,44.1,30.15,SW,225,0.0,0.7,93,0.00,,,0.00,pywws,2013-11-12 13:33:00,
2013-11-12 08:38:00,48.4,45.9,30.15,West,270,0.0,0.0,91,0.00,,,0.00,pywws,2013-11-12 13:38:00,
2013-11-12 08:43:00,49.3,45.9,30.15,WNW,292,0.0,0.0,88,0.00,,,0.00,pywws,2013-11-12 13:43:00,
2013-11-12 08:48:00,50.9,46.9,30.15,West,270,0.7,2.2,86,0.00,,,0.00,pywws,2013-11-12 13:48:00,
2013-11-12 08:53:00,52.7,46.7,30.15,West,270,0.7,1.6,80,0.00,,,0.00,pywws,2013-11-12 13:53:00,
2013-11-12 09:03:00,54.1,46.0,30.14,SW,225,1.6,3.8,74,0.00,,,0.00,pywws,2013-11-12 14:03:00,
2013-11-12 09:08:00,56.1,46.8,30.14,SW,225,0.7,2.2,71,0.00,,,0.00,pywws,2013-11-12 14:08:00,
2013-11-12 09:13:00,56.7,46.6,30.14,SW,225,0.0,1.6,69,0.00,,,0.00,pywws,2013-11-12 14:13:00,
2013-11-12 09:18:00,57.2,46.3,30.14,West,270,0.0,2.2,67,0.00,,,0.00,pywws,2013-11-12 14:18:00,
2013-11-12 09:23:00,58.3,46.2,30.14,West,270,1.6,2.2,64,0.00,,,0.00,pywws,2013-11-12 14:23:00,
2013-11-12 09:33:00,59.5,44.7,30.14,SW,225,1.6,3.1,58,0.00,,,0.00,pywws,2013-11-12 14:33:00,
2013-11-12 09:38:00,59.2,43.0,30.14,NW,315,1.6,3.1,55,0.00,,,0.00,pywws,2013-11-12 14:38:00,
2013-11-12 09:43:00,59.0,43.3,30.14,SW,225,1.6,3.1,56,0.00,,,0.00,pywws,2013-11-12 14:43:00,
2013-11-12 09:48:00,59.5,43.4,30.14,West,270,1.6,3.8,55,0.00,,,0.00,pywws,2013-11-12 14:48:00,
2013-11-12 09:53:00,60.1,44.3,30.14,West,270,1.6,2.2,56,0.00,,,0.00,pywws,2013-11-12 14:53:00,
2013-11-12 10:03:00,60.6,44.4,30.14,West,270,1.6,3.1,55,0.00,,,0.00,pywws,2013-11-12 15:03:00,
2013-11-12 10:08:00,61.9,44.1,30.13,South,180,0.0,1.6,52,0.00,,,0.00,pywws,2013-11-12 15:08:00,
2013-11-12 10:13:00,61.5,44.2,30.13,North,0,1.6,3.1,53,0.00,,,0.00,pywws,2013-11-12 15:13:00,
2013-11-12 10:18:00,61.3,43.6,30.13,East,90,2.2,5.4,52,0.00,,,0.00,pywws,2013-11-12 15:18:00,
2013-11-12 10:23:00,61.5,43.7,30.13,West,270,2.2,4.5,52,0.00,,,0.00,pywws,2013-11-12 15:23:00,
2013-11-12 10:33:00,61.2,44.4,30.13,West,270,1.6,2.2,54,0.00,,,0.00,pywws,2013-11-12 15:33:00,
2013-11-12 10:38:00,61.7,43.9,30.13,SW,225,2.2,5.4,52,0.00,,,0.00,pywws,2013-11-12 15:38:00,
2013-11-12 10:43:00,62.8,44.4,30.13,South,180,2.2,4.5,51,0.00,,,0.00,pywws,2013-11-12 15:43:00,
2013-11-12 10:48:00,64.6,46.0,30.13,NW,315,0.7,2.2,51,0.00,,,0.00,pywws,2013-11-12 15:48:00,
2013-11-12 10:53:00,66.2,44.8,30.13,South,180,1.6,3.1,46,0.00,,,0.00,pywws,2013-11-12 15:53:00,
2013-11-12 11:03:00,66.6,45.1,30.13,West,270,1.6,3.1,46,0.00,,,0.00,pywws,2013-11-12 16:03:00,
2013-11-12 11:08:00,69.3,45.8,30.13,SW,225,3.1,5.4,43,0.00,,,0.00,pywws,2013-11-12 16:08:00,
2013-11-12 11:13:00,67.5,44.2,30.13,West,270,0.7,2.2,43,0.00,,,0.00,pywws,2013-11-12 16:13:00,
2013-11-12 11:18:00,67.6,44.9,30.13,West,270,1.6,2.2,44,0.00,,,0.00,pywws,2013-11-12 16:18:00,
2013-11-12 11:23:00,68.7,45.9,30.14,West,270,0.7,2.2,44,0.00,,,0.00,pywws,2013-11-12 16:23:00,
2013-11-12 11:33:00,68.7,42.8,30.14,WSW,248,1.6,3.1,39,0.00,,,0.00,pywws,2013-11-12 16:33:00,
2013-11-12 11:38:00,67.3,42.8,30.14,WNW,292,0.0,2.2,41,0.00,,,0.00,pywws,2013-11-12 16:38:00,
2013-11-12 11:43:00,67.6,43.7,30.14,NW,315,1.6,3.8,42,0.00,,,0.00,pywws,2013-11-12 16:43:00,
2013-11-12 11:48:00,67.6,39.0,30.14,WNW,292,3.1,4.5,35,0.00,,,0.00,pywws,2013-11-12 16:48:00,
2013-11-12 11:53:00,67.6,37.5,30.14,West,270,4.5,6.9,33,0.00,,,0.00,pywws,2013-11-12 16:53:00,
2013-11-12 12:03:00,67.6,38.3,30.14,WSW,248,2.2,3.8,34,0.00,,,0.00,pywws,2013-11-12 17:03:00,
2013-11-12 12:07:00,68.0,39.3,30.13,SW,225,0.7,3.1,35,0.00,,,0.00,pywws,2013-11-12 17:07:00,
2013-11-12 12:12:00,68.2,39.5,30.13,West,270,0.7,2.2,35,0.00,,,0.00,pywws,2013-11-12 17:12:00,
2013-11-12 12:17:00,68.5,40.5,30.13,NNW,338,0.7,2.2,36,0.00,,,0.00,pywws,2013-11-12 17:17:00,
2013-11-12 12:22:00,68.5,39.1,30.12,South,180,1.6,3.8,34,0.00,,,0.00,pywws,2013-11-12 17:22:00,
2013-11-12 12:33:00,68.5,39.1,30.12,SW,225,0.7,2.2,34,0.00,,,0.00,pywws,2013-11-12 17:33:00,
2013-11-12 12:37:00,69.3,38.9,30.12,WNW,292,0.7,3.1,33,0.00,,,0.00,pywws,2013-11-12 17:37:00,
2013-11-12 12:42:00,69.4,39.1,30.12,NW,315,1.6,3.1,33,0.00,,,0.00,pywws,2013-11-12 17:42:00,
2013-11-12 12:47:00,69.8,37.8,30.11,West,270,3.1,5.4,31,0.00,,,0.00,pywws,2013-11-12 17:47:00,
2013-11-12 12:52:00,70.0,39.5,30.11,SW,225,0.0,1.6,33,0.00,,,0.00,pywws,2013-11-12 17:52:00,
2013-11-12 13:03:00,70.3,39.1,30.11,West,270,2.2,4.5,32,0.00,,,0.00,pywws,2013-11-12 18:03:00,
2013-11-12 13:08:00,70.9,37.9,30.11,SW,225,3.1,6.0,30,0.00,,,0.00,pywws,2013-11-12 18:08:00,
2013-11-12 13:13:00,70.9,39.5,30.10,West,270,0.7,2.2,32,0.00,,,0.00,pywws,2013-11-12 18:13:00,
2013-11-12 13:18:00,71.2,40.6,30.10,SW,225,1.6,4.5,33,0.00,,,0.00,pywws,2013-11-12 18:18:00,
2013-11-12 13:23:00,71.4,39.2,30.10,West,270,0.7,2.2,31,0.00,,,0.00,pywws,2013-11-12 18:23:00,
2013-11-12 13:33:00,71.6,40.2,30.09,NNW,338,1.6,3.1,32,0.00,,,0.00,pywws,2013-11-12 18:33:00,
2013-11-12 13:38:00,71.1,40.5,30.09,SW,225,0.7,2.2,33,0.00,,,0.00,pywws,2013-11-12 18:38:00,
2013-11-12 13:43:00,71.4,40.8,30.09,ENE,68,1.6,3.8,33,0.00,,,0.00,pywws,2013-11-12 18:43:00,
2013-11-12 13:48:00,72.0,42.1,30.09,West,270,4.5,6.0,34,0.00,,,0.00,pywws,2013-11-12 18:48:00,
2013-11-12 13:53:00,71.8,40.3,30.09,SW,225,3.8,6.0,32,0.00,,,0.00,pywws,2013-11-12 18:53:00,
2013-11-12 14:03:00,71.6,41.0,30.08,NW,315,2.2,4.5,33,0.00,,,0.00,pywws,2013-11-12 19:03:00,
2013-11-12 14:08:00,72.0,40.5,30.08,NW,315,1.6,3.8,32,0.00,,,0.00,pywws,2013-11-12 19:08:00,
2013-11-12 14:13:00,72.7,42.7,30.08,West,270,3.1,4.5,34,0.00,,,0.00,pywws,2013-11-12 19:13:00,
2013-11-12 14:18:00,73.4,42.5,30.08,West,270,1.6,3.1,33,0.00,,,0.00,pywws,2013-11-12 19:18:00,
2013-11-12 14:23:00,73.6,41.1,30.08,NW,315,2.2,3.8,31,0.00,,,0.00,pywws,2013-11-12 19:23:00,
2013-11-12 14:33:00,73.0,40.6,30.08,West,270,5.4,8.3,31,0.00,,,0.00,pywws,2013-11-12 19:33:00,
2013-11-12 14:38:00,72.5,41.7,30.07,WNW,292,3.1,6.0,33,0.00,,,0.00,pywws,2013-11-12 19:38:00,
2013-11-12 14:43:00,72.3,42.4,30.07,West,270,2.2,3.8,34,0.00,,,0.00,pywws,2013-11-12 19:43:00,
2013-11-12 14:48:00,72.1,41.4,30.07,West,270,3.1,6.0,33,0.00,,,0.00,pywws,2013-11-12 19:48:00,
2013-11-12 14:53:00,72.0,41.3,30.07,North,0,1.6,3.8,33,0.00,,,0.00,pywws,2013-11-12 19:53:00,
2013-11-12 15:03:00,72.1,41.4,30.06,NW,315,3.8,7.6,33,0.00,,,0.00,pywws,2013-11-12 20:03:00,
2013-11-12 15:07:00,72.7,41.9,30.06,West,270,3.1,5.4,33,0.00,,,0.00,pywws,2013-11-12 20:07:00,
2013-11-12 15:12:00,72.5,41.7,30.06,NW,315,1.6,4.5,33,0.00,,,0.00,pywws,2013-11-12 20:12:00,
2013-11-12 15:17:00,73.4,42.5,30.06,West,270,1.6,3.1,33,0.00,,,0.00,pywws,2013-11-12 20:17:00,
2013-11-12 15:22:00,74.8,43.0,30.06,SW,225,1.6,3.8,32,0.00,,,0.00,pywws,2013-11-12 20:22:00,
2013-11-12 15:33:00,74.7,42.0,30.06,West,270,2.2,4.5,31,0.00,,,0.00,pywws,2013-11-12 20:33:00,
2013-11-12 15:38:00,72.7,41.9,30.05,West,270,2.2,3.8,33,0.00,,,0.00,pywws,2013-11-12 20:38:00,
2013-11-12 15:43:00,72.0,41.3,30.05,SW,225,2.2,4.5,33,0.00,,,0.00,pywws,2013-11-12 20:43:00,
2013-11-12 15:48:00,71.6,41.0,30.05,NW,315,0.7,2.2,33,0.00,,,0.00,pywws,2013-11-12 20:48:00,
2013-11-12 15:53:00,71.4,41.6,30.04,West,270,1.6,3.1,34,0.00,,,0.00,pywws,2013-11-12 20:53:00,
2013-11-12 16:03:00,71.2,42.2,30.04,West,270,1.6,3.1,35,0.00,,,0.00,pywws,2013-11-12 21:03:00,
2013-11-12 16:08:00,70.5,41.5,30.04,West,270,1.6,3.1,35,0.00,,,0.00,pywws,2013-11-12 21:08:00,
2013-11-12 16:13:00,70.5,41.5,30.04,NW,315,1.6,3.8,35,0.00,,,0.00,pywws,2013-11-12 21:13:00,
2013-11-12 16:18:00,70.2,41.2,30.04,West,270,2.2,4.5,35,0.00,,,0.00,pywws,2013-11-12 21:18:00,
2013-11-12 16:23:00,69.8,41.6,30.04,West,270,0.0,1.6,36,0.00,,,0.00,pywws,2013-11-12 21:23:00,
2013-11-12 16:33:00,69.6,42.2,30.04,South,180,0.0,1.6,37,0.00,,,0.00,pywws,2013-11-12 21:33:00,
2013-11-12 16:38:00,69.1,42.4,30.03,West,270,0.7,1.6,38,0.00,,,0.00,pywws,2013-11-12 21:38:00,
2013-11-12 16:43:00,69.1,42.4,30.03,West,270,1.6,3.1,38,0.00,,,0.00,pywws,2013-11-12 21:43:00,
2013-11-12 16:48:00,68.9,42.2,30.03,West,270,0.7,2.2,38,0.00,,,0.00,pywws,2013-11-12 21:48:00,
2013-11-12 16:53:00,68.5,42.6,30.03,NW,315,0.7,1.6,39,0.00,,,0.00,pywws,2013-11-12 21:53:00,
2013-11-12 17:03:00,68.4,42.4,30.03,West,270,0.0,0.7,39,0.00,,,0.00,pywws,2013-11-12 22:03:00,
2013-11-12 17:07:00,67.6,43.1,30.03,West,270,2.2,3.8,41,0.00,,,0.00,pywws,2013-11-12 22:07:00,
2013-11-12 17:12:00,67.3,43.4,30.03,SW,225,0.0,0.7,42,0.00,,,0.00,pywws,2013-11-12 22:12:00,
2013-11-12 17:17:00,66.9,44.3,30.03,SW,225,0.7,2.2,44,0.00,,,0.00,pywws,2013-11-12 22:17:00,
2013-11-12 17:22:00,66.2,43.6,30.03,West,270,0.7,2.2,44,0.00,,,0.00,pywws,2013-11-12 22:22:00,
2013-11-12 17:33:00,65.8,43.3,30.03,WNW,292,0.0,0.7,44,0.00,,,0.00,pywws,2013-11-12 22:33:00,
2013-11-12 17:38:00,65.5,40.5,30.02,NW,315,2.2,4.5,40,0.00,,,0.00,pywws,2013-11-12 22:38:00,
2013-11-12 17:43:00,64.9,40.7,30.02,West,270,3.1,5.4,41,0.00,,,0.00,pywws,2013-11-12 22:43:00,
2013-11-12 17:48:00,64.0,40.5,30.02,West,270,3.8,6.9,42,0.00,,,0.00,pywws,2013-11-12 22:48:00,
2013-11-12 17:53:00,63.0,40.1,30.02,NW,315,2.2,5.4,43,0.00,,,0.00,pywws,2013-11-12 22:53:00,
2013-11-12 18:03:00,62.2,40.1,30.01,West,270,2.2,3.8,44,0.00,,,0.00,pywws,2013-11-12 23:03:00,
2013-11-12 18:07:00,61.2,39.7,30.01,NE,45,2.2,3.8,45,0.00,,,0.00,pywws,2013-11-12 23:07:00,
2013-11-12 18:12:00,60.8,39.3,30.01,East,90,2.2,4.5,45,0.00,,,0.00,pywws,2013-11-12 23:12:00,
2013-11-12 18:17:00,60.4,39.6,30.01,SW,225,1.6,3.1,46,0.00,,,0.00,pywws,2013-11-12 23:17:00,
2013-11-12 18:22:00,60.1,39.2,30.01,WNW,292,3.1,4.5,46,0.00,,,0.00,pywws,2013-11-12 23:22:00,
2013-11-12 18:33:00,59.7,38.9,30.01,West,270,2.2,5.4,46,0.00,,,0.00,pywws,2013-11-12 23:33:00,
2013-11-12 18:38:00,59.0,38.8,30.01,NW,315,1.6,3.8,47,0.00,,,0.00,pywws,2013-11-12 23:38:00,
2013-11-12 18:43:00,58.6,37.9,30.01,SW,225,3.8,7.6,46,0.00,,,0.00,pywws,2013-11-12 23:43:00,
2013-11-12 18:48:00,58.3,38.1,30.01,NW,315,1.6,3.8,47,0.00,,,0.00,pywws,2013-11-12 23:48:00,
2013-11-12 18:53:00,57.7,37.1,30.01,WNW,292,2.2,4.5,46,0.00,,,0.00,pywws,2013-11-12 23:53:00,
2013-11-12 19:03:00,57.4,36.8,30.01,NE,45,3.1,5.4,46,0.00,,,0.00,pywws,2013-11-13 00:03:00,
2013-11-12 19:08:00,57.2,36.6,30.01,SW,225,4.5,7.6,46,0.00,,,0.00,pywws,2013-11-13 00:08:00,
2013-11-12 19:13:00,56.1,35.6,30.01,NW,315,3.8,6.9,46,0.00,,,0.00,pywws,2013-11-13 00:13:00,
2013-11-12 19:18:00,55.6,35.1,30.01,SW,225,3.8,6.0,46,0.00,,,0.00,pywws,2013-11-13 00:18:00,
2013-11-12 19:23:00,55.2,34.8,30.01,West,270,4.5,6.9,46,0.00,,,0.00,pywws,2013-11-13 00:23:00,
2013-11-12 19:33:00,55.0,35.2,30.01,NW,315,3.1,6.0,47,0.00,,,0.00,pywws,2013-11-13 00:33:00,
2013-11-12 19:38:00,54.3,34.5,30.00,West,270,3.1,6.9,47,0.00,,,0.00,pywws,2013-11-13 00:38:00,
2013-11-12 19:43:00,53.6,34.9,30.00,North,-999,3.1,6.0,49,0.00,,,0.00,pywws,2013-11-13 00:43:00,
2013-11-12 19:48:00,52.7,35.1,30.00,NW,315,3.8,7.6,51,0.00,,,0.00,pywws,2013-11-13 00:48:00,
2013-11-12 19:53:00,51.6,35.5,30.00,West,270,3.1,6.0,54,0.00,,,0.00,pywws,2013-11-13 00:53:00,
2013-11-12 20:03:00,50.5,35.9,30.00,NW,315,3.8,8.3,57,0.00,,,0.00,pywws,2013-11-13 01:03:00,
2013-11-12 20:08:00,49.3,36.8,30.00,West,270,2.2,5.4,62,0.00,,,0.00,pywws,2013-11-13 01:08:00,
2013-11-12 20:13:00,48.7,37.1,30.00,NW,315,3.8,9.2,64,0.00,,,0.00,pywws,2013-11-13 01:13:00,
2013-11-12 20:18:00,48.0,36.0,30.00,North,0,4.5,6.9,63,0.00,,,0.00,pywws,2013-11-13 01:18:00,
2013-11-12 20:23:00,46.8,34.8,30.00,NW,315,2.2,5.4,63,0.00,,,0.00,pywws,2013-11-13 01:23:00,
2013-11-12 20:33:00,46.0,34.6,30.00,North,0,1.6,3.8,64,0.00,,,0.00,pywws,2013-11-13 01:33:00,
2013-11-12 20:38:00,45.7,34.6,30.01,SSE,158,2.2,3.8,65,0.00,,,0.00,pywws,2013-11-13 01:38:00,
2013-11-12 20:43:00,45.0,35.0,30.01,East,90,4.5,11.4,68,0.00,,,0.00,pywws,2013-11-13 01:43:00,
2013-11-12 20:48:00,44.2,34.4,30.01,SW,225,3.1,6.0,68,0.00,,,0.00,pywws,2013-11-13 01:48:00,
2013-11-12 20:53:00,43.9,34.7,30.01,SW,225,2.2,5.4,70,0.00,,,0.00,pywws,2013-11-13 01:53:00,
2013-11-12 21:03:00,43.5,35.1,30.01,NW,315,3.1,6.0,72,0.00,,,0.00,pywws,2013-11-13 02:03:00,
2013-11-12 21:08:00,43.0,34.9,30.01,North,0,2.2,6.0,73,0.00,,,0.00,pywws,2013-11-13 02:08:00,
2013-11-12 21:13:00,42.4,34.1,30.01,West,270,6.0,8.3,72,0.00,,,0.00,pywws,2013-11-13 02:13:00,
2013-11-12 21:18:00,41.9,33.9,30.01,SSW,202,2.2,4.5,73,0.00,,,0.00,pywws,2013-11-13 02:18:00,
2013-11-12 21:23:00,41.4,33.4,30.01,NW,315,3.1,5.4,73,0.00,,,0.00,pywws,2013-11-13 02:23:00,
2013-11-12 21:33:00,41.0,33.4,30.01,South,180,3.1,6.9,74,0.00,,,0.00,pywws,2013-11-13 02:33:00,
2013-11-12 21:38:00,40.5,33.2,30.02,South,180,3.1,5.4,75,0.00,,,0.00,pywws,2013-11-13 02:38:00,
2013-11-12 21:43:00,40.3,33.0,30.02,SW,225,1.6,3.1,75,0.00,,,0.00,pywws,2013-11-13 02:43:00,
2013-11-12 21:48:00,40.1,33.2,30.02,SE,135,3.1,6.9,76,0.00,,,0.00,pywws,2013-11-13 02:48:00,
2013-11-12 21:53:00,39.9,33.3,30.02,WSW,248,1.6,3.1,77,0.00,,,0.00,pywws,2013-11-13 02:53:00,
2013-11-12 22:03:00,39.9,33.3,30.03,WSW,248,1.6,3.1,77,0.00,,,0.00,pywws,2013-11-13 03:03:00,
2013-11-12 22:08:00,39.6,33.0,30.03,SW,225,3.1,5.4,77,0.00,,,0.00,pywws,2013-11-13 03:08:00,
2013-11-12 22:13:00,39.6,33.0,30.03,WNW,292,2.2,4.5,77,0.00,,,0.00,pywws,2013-11-13 03:13:00,
2013-11-12 22:18:00,39.6,32.6,30.03,NW,315,1.6,3.8,76,0.00,,,0.00,pywws,2013-11-13 03:18:00,
2013-11-12 22:23:00,39.4,32.5,30.03,WNW,292,2.2,3.8,76,0.00,,,0.00,pywws,2013-11-13 03:23:00,
2013-11-12 22:33:00,39.4,32.5,30.03,SW,225,2.2,3.8,76,0.00,,,0.00,pywws,2013-11-13 03:33:00,
2013-11-12 22:38:00,39.2,31.6,30.03,West,270,3.1,5.4,74,0.00,,,0.00,pywws,2013-11-13 03:38:00,
2013-11-12 22:43:00,39.2,31.6,30.04,SE,135,1.6,3.8,74,0.00,,,0.00,pywws,2013-11-13 03:43:00,
2013-11-12 22:48:00,39.2,31.6,30.04,SE,135,0.7,3.1,74,0.00,,,0.00,pywws,2013-11-13 03:48:00,
2013-11-12 22:53:00,38.7,31.1,30.04,West,270,1.6,4.5,74,0.00,,,0.00,pywws,2013-11-13 03:53:00,
2013-11-12 23:03:00,38.7,31.1,30.04,West,270,2.2,6.0,74,0.00,,,0.00,pywws,2013-11-13 04:03:00,
2013-11-12 23:08:00,38.8,31.6,30.05,South,180,0.7,3.1,75,0.00,,,0.00,pywws,2013-11-13 04:08:00,
2013-11-12 23:13:00,38.7,31.4,30.05,SW,225,1.6,3.8,75,0.00,,,0.00,pywws,2013-11-13 04:13:00,
2013-11-12 23:18:00,38.5,31.3,30.06,NNE,22,1.6,4.5,75,0.00,,,0.00,pywws,2013-11-13 04:18:00,
2013-11-12 23:23:00,38.7,31.4,30.06,NW,315,2.2,3.8,75,0.00,,,0.00,pywws,2013-11-13 04:23:00,
2013-11-12 23:33:00,38.7,31.1,30.06,West,270,3.1,6.9,74,0.00,,,0.00,pywws,2013-11-13 04:33:00,
2013-11-12 23:38:00,38.5,30.6,30.07,SW,225,2.2,6.9,73,0.00,,,0.00,pywws,2013-11-13 04:38:00,
2013-11-12 23:43:00,38.5,29.9,30.07,West,270,3.8,6.9,71,0.00,,,0.00,pywws,2013-11-13 04:43:00,
2013-11-12 23:48:00,38.3,29.7,30.08,South,180,2.2,4.5,71,0.00,,,0.00,pywws,2013-11-13 04:48:00,
2013-11-12 23:53:00,38.3,29.7,30.08,SW,225,3.1,7.6,71,0.00,,,0.00,pywws,2013-11-13 04:53:00,